DLH74S EDDM-RJBB

Flight info

Callsign DLH74S
Flight time N/A
Altitude 23000
Route KIRDI4N KIRDI DCT BUWOQ DCT OBFEZ DCT STEIN DCT TEGRI DCT DINRO/N0487F370 DCT UDROS UM859 KARDE UN644 ROLIN DCT TAGAR DCT BT DCT BARAD M747 SUBUT T916 LEYLA N161 GASBI/K0902F370 N161 ABDUN/K0895F390 N161 SARIN/K0896S1190 A368 FKG W188 LIKMI W270 BUVEM/K0893S1250 W270 DKO W69 HUR B339 LADIX W34 VAPGU DCT MUDOT DCT UNSEK A326 DONVO G597 AGAVO/N0489F410 Y644 EGOBA Y697 LANAT Y597 MIHOU Y361 SAEKI Y36 ATMUG
Aircraft A359/H-SDE2E3GHIJ3J4J5LM1ORWXY/LB1D1

Departure

Time 2026-05-04 21:36
Airport Munich Airport (EDDM)

Arrival

Time N/A
Airport Kansai International Airport (RJBB)
Time Latitude Longitude Altitude Speed Heading
2026-05-04 21:20 48.35307 11.79353 1476 ft 0 kts 262°
2026-05-04 21:28 48.35308 11.79365 1476 ft 4 kts 262°
2026-05-04 21:28 48.35311 11.79406 1478 ft 4 kts 263°
2026-05-04 21:28 48.35314 11.79446 1479 ft 4 kts 263°
2026-05-04 21:28 48.35317 11.79480 1479 ft 2 kts 263°
2026-05-04 21:29 48.35323 11.79516 1481 ft 4 kts 232°
2026-05-04 21:29 48.35343 11.79538 1476 ft 4 kts 187°
2026-05-04 21:29 48.35368 11.79537 1479 ft 4 kts 173°
2026-05-04 21:29 48.35385 11.79534 1476 ft 0 kts 173°
2026-05-04 21:31 48.35379 11.79535 1476 ft 2 kts 174°
2026-05-04 21:32 48.35349 11.79539 1476 ft 7 kts 173°
2026-05-04 21:32 48.35286 11.79551 1477 ft 11 kts 173°
2026-05-04 21:32 48.35194 11.79568 1478 ft 15 kts 173°
2026-05-04 21:32 48.35080 11.79586 1478 ft 17 kts 174°
2026-05-04 21:33 48.34988 11.79642 1476 ft 16 kts 140°
2026-05-04 21:33 48.34872 11.79689 1476 ft 15 kts 173°
2026-05-04 21:33 48.34813 11.79785 1477 ft 15 kts 98°
2026-05-04 21:33 48.34820 11.79953 1487 ft 18 kts 84°
2026-05-04 21:34 48.34838 11.80161 1478 ft 22 kts 83°
2026-05-04 21:34 48.34808 11.80350 1476 ft 19 kts 138°
2026-05-04 21:34 48.34677 11.80408 1482 ft 21 kts 172°
2026-05-04 21:34 48.34576 11.80415 1481 ft 23 kts 188°
2026-05-04 21:35 48.34472 11.80307 1478 ft 16 kts 253°
2026-05-04 21:35 48.34468 11.80273 1478 ft 0 kts 262°
2026-05-04 21:35 48.34459 11.80166 1483 ft 37 kts 264°
2026-05-04 21:36 48.34406 11.79474 1479 ft 95 kts 263°
2026-05-04 21:36 48.34311 11.78223 1487 ft 145 kts 264°
2026-05-04 21:36 48.34177 11.76519 1685 ft 172 kts 263°
2026-05-04 21:36 48.33979 11.74787 2390 ft 170 kts 260°
2026-05-04 21:37 48.33701 11.72968 2674 ft 189 kts 252°
2026-05-04 21:37 48.32881 11.71339 2789 ft 208 kts 212°
2026-05-04 21:37 48.31447 11.70765 2988 ft 222 kts 182°
2026-05-04 21:37 48.29876 11.70734 3424 ft 228 kts 177°
2026-05-04 21:38 48.28333 11.71250 3947 ft 230 kts 154°
2026-05-04 21:38 48.26925 11.72497 4220 ft 247 kts 146°
2026-05-04 21:38 48.25472 11.74011 4541 ft 260 kts 146°
2026-05-04 21:38 48.23976 11.75576 5058 ft 264 kts 146°
2026-05-04 21:39 48.22449 11.77152 5634 ft 269 kts 147°
2026-05-04 21:39 48.20878 11.78758 6243 ft 272 kts 147°
2026-05-04 21:39 48.19421 11.80537 6813 ft 277 kts 134°
2026-05-04 21:39 48.18457 11.83043 7418 ft 283 kts 107°
2026-05-04 21:40 48.18291 11.85977 8071 ft 286 kts 87°
2026-05-04 21:40 48.18493 11.88960 8728 ft 289 kts 84°
2026-05-04 21:40 48.18734 11.91960 9394 ft 291 kts 84°
2026-05-04 21:40 48.18949 11.94727 9990 ft 294 kts 85°
2026-05-04 21:41 48.19178 11.97783 10583 ft 297 kts 85°
2026-05-04 21:41 48.19402 12.00874 11188 ft 300 kts 85°
2026-05-04 21:41 48.19625 12.03998 11789 ft 303 kts 85°
2026-05-04 21:41 48.19848 12.07157 12333 ft 308 kts 86°
2026-05-04 21:42 48.20073 12.10378 12872 ft 313 kts 87°
2026-05-04 21:42 48.20300 12.13636 13462 ft 316 kts 87°
2026-05-04 21:42 48.20527 12.16926 14006 ft 318 kts 87°
2026-05-04 21:42 48.20756 12.20239 14515 ft 321 kts 87°
2026-05-04 21:43 48.20985 12.23579 15008 ft 324 kts 87°
2026-05-04 21:43 48.21216 12.26947 15497 ft 326 kts 86°
2026-05-04 21:43 48.21446 12.30339 15997 ft 328 kts 86°
2026-05-04 21:43 48.21677 12.33752 16461 ft 331 kts 86°
2026-05-04 21:44 48.21909 12.37196 16948 ft 333 kts 86°
2026-05-04 21:44 48.22142 12.40668 17429 ft 336 kts 86°
2026-05-04 21:44 48.22375 12.44163 17910 ft 338 kts 86°
2026-05-04 21:44 48.22609 12.47689 18372 ft 341 kts 86°
2026-05-04 21:45 48.22843 12.51234 18794 ft 343 kts 86°
2026-05-04 21:45 48.23071 12.54804 19221 ft 345 kts 87°
2026-05-04 21:45 48.23022 12.58401 19587 ft 348 kts 98°
2026-05-04 21:45 48.22713 12.62050 19782 ft 358 kts 100°
2026-05-04 21:46 48.22348 12.65800 19949 ft 369 kts 100°
2026-05-04 21:46 48.21970 12.69671 20133 ft 381 kts 100°
2026-05-04 21:46 48.21584 12.73657 20320 ft 392 kts 100°
2026-05-04 21:46 48.21190 12.77758 20501 ft 403 kts 100°
2026-05-04 21:47 48.20785 12.81976 20701 ft 414 kts 100°
2026-05-04 21:47 48.20368 12.86310 20898 ft 425 kts 100°
2026-05-04 21:47 48.19939 12.90744 21088 ft 435 kts 100°
2026-05-04 21:47 48.19501 12.95212 21278 ft 445 kts 100°
2026-05-04 21:48 48.19040 12.99828 21650 ft 450 kts 100°
2026-05-04 21:48 48.18573 13.04482 22107 ft 452 kts 100°
2026-05-04 21:48 48.18104 13.09152 22610 ft 455 kts 100°
2026-05-04 21:48 48.17631 13.13855 23076 ft 458 kts 100°
2026-05-04 21:49 48.17155 13.18588 23541 ft 461 kts 100°
2026-05-04 21:49 48.16676 13.23344 23925 ft 463 kts 100°
2026-05-04 21:49 48.16194 13.28128 24321 ft 466 kts 100°
2026-05-04 21:49 48.15708 13.32938 24701 ft 468 kts 100°
2026-05-04 21:50 48.15214 13.37773 25102 ft 470 kts 100°
2026-05-04 21:50 48.14704 13.42610 25498 ft 472 kts 100°
2026-05-04 21:50 48.14187 13.47481 25877 ft 475 kts 100°
2026-05-04 21:50 48.13671 13.52367 26243 ft 477 kts 100°
2026-05-04 21:51 48.13152 13.57294 26616 ft 480 kts 100°
2026-05-04 21:51 48.12633 13.62238 26996 ft 482 kts 100°
2026-05-04 21:51 48.12113 13.67207 27353 ft 485 kts 100°
2026-05-04 21:51 48.11591 13.72204 27714 ft 487 kts 100°
2026-05-04 21:52 48.11068 13.77224 28056 ft 490 kts 100°
2026-05-04 21:52 48.10541 13.82282 28341 ft 493 kts 100°
2026-05-04 21:52 48.10010 13.87366 28657 ft 496 kts 100°
2026-05-04 21:52 48.09478 13.92473 28989 ft 498 kts 100°
2026-05-04 21:53 48.08944 13.97601 29300 ft 500 kts 100°
2026-05-04 21:53 48.08407 14.02757 29590 ft 503 kts 100°
2026-05-04 21:53 48.07870 14.07924 29942 ft 503 kts 100°
2026-05-04 21:53 48.07245 14.13050 30310 ft 501 kts 105°
2026-05-04 21:54 48.06371 14.18085 30639 ft 499 kts 107°
2026-05-04 21:54 48.05401 14.23066 30926 ft 500 kts 109°
2026-05-04 21:54 48.04374 14.28027 31239 ft 499 kts 109°
2026-05-04 21:54 48.03326 14.32967 31578 ft 498 kts 109°
2026-05-04 21:55 48.02274 14.37891 31916 ft 497 kts 109°
2026-05-04 21:55 48.01226 14.42809 32254 ft 496 kts 109°
2026-05-04 21:55 48.00185 14.47713 32556 ft 495 kts 109°
2026-05-04 21:55 47.99147 14.52620 32848 ft 495 kts 109°
2026-05-04 21:56 47.98112 14.57514 33145 ft 494 kts 109°
2026-05-04 21:56 47.97081 14.62390 33505 ft 492 kts 109°
2026-05-04 21:56 47.96053 14.67248 33855 ft 490 kts 109°
2026-05-04 21:56 47.95024 14.72094 34080 ft 490 kts 109°
2026-05-04 21:57 47.93995 14.76935 34262 ft 490 kts 109°
2026-05-04 21:57 47.92961 14.81777 34465 ft 490 kts 109°
2026-05-04 21:57 47.91930 14.86597 34653 ft 490 kts 109°
2026-05-04 21:57 47.90888 14.91454 34837 ft 490 kts 109°
2026-05-04 21:58 47.89847 14.96296 34997 ft 491 kts 109°
2026-05-04 21:58 47.88803 15.01140 35140 ft 491 kts 109°
2026-05-04 21:58 47.87755 15.05987 35285 ft 492 kts 109°
2026-05-04 21:58 47.86707 15.10831 35496 ft 491 kts 109°
2026-05-04 21:59 47.85658 15.15665 35664 ft 491 kts 109°
2026-05-04 21:59 47.84608 15.20493 35813 ft 491 kts 109°
2026-05-04 21:59 47.83554 15.25324 35967 ft 491 kts 109°
2026-05-04 21:59 47.82512 15.30096 36090 ft 491 kts 109°
2026-05-04 22:00 47.81341 15.34857 36244 ft 490 kts 115°
2026-05-04 22:00 47.78626 15.44172 36414 ft 492 kts 115°
2026-05-04 22:01 47.75811 15.53458 36649 ft 493 kts 116°
2026-05-04 22:01 47.74396 15.58088 36876 ft 490 kts 116°
2026-05-04 22:01 47.72984 15.62704 36988 ft 492 kts 116°
2026-05-04 22:02 47.70142 15.71992 36979 ft 497 kts 116°
2026-05-04 22:02 47.67280 15.81327 36971 ft 496 kts 115°
2026-05-04 22:03 47.64426 15.90613 36964 ft 494 kts 115°
2026-05-04 22:03 47.61569 15.99873 36963 ft 494 kts 115°
2026-05-04 22:04 47.58702 16.09128 36972 ft 494 kts 115°
2026-05-04 22:04 47.55825 16.18380 36967 ft 495 kts 115°
2026-05-04 22:05 47.52936 16.27637 36956 ft 496 kts 115°
2026-05-04 22:05 47.50037 16.36894 36963 ft 496 kts 115°
2026-05-04 22:06 47.47132 16.46134 36963 ft 496 kts 115°
2026-05-04 22:06 47.44219 16.55366 36964 ft 495 kts 115°
2026-05-04 22:07 47.41641 16.64798 36970 ft 495 kts 110°
2026-05-04 22:07 47.39355 16.74379 36965 ft 495 kts 109°
2026-05-04 22:08 47.37107 16.83978 36978 ft 495 kts 109°
2026-05-04 22:08 47.34848 16.93571 36972 ft 495 kts 109°
2026-05-04 22:09 47.32575 17.03147 36975 ft 495 kts 109°
2026-05-04 22:09 47.30286 17.12727 36974 ft 495 kts 109°
2026-05-04 22:10 47.27993 17.22285 36988 ft 495 kts 110°
2026-05-04 22:10 47.25688 17.31849 36988 ft 496 kts 109°
2026-05-04 22:11 47.23373 17.41415 36996 ft 496 kts 109°
2026-05-04 22:11 47.21050 17.50971 36989 ft 496 kts 110°
2026-05-04 22:12 47.18736 17.60454 36993 ft 496 kts 109°
2026-05-04 22:12 47.16396 17.70002 36999 ft 497 kts 109°
2026-05-04 22:13 47.14047 17.79545 37011 ft 497 kts 109°
2026-05-04 22:13 47.11689 17.89081 37010 ft 497 kts 109°
2026-05-04 22:14 47.09324 17.98608 37023 ft 497 kts 109°
2026-05-04 22:14 47.06952 18.08123 37032 ft 496 kts 109°
2026-05-04 22:15 47.04572 18.17628 37027 ft 496 kts 109°
2026-05-04 22:15 47.02186 18.27119 37037 ft 496 kts 110°
2026-05-04 22:16 46.99791 18.36605 37040 ft 496 kts 109°
2026-05-04 22:16 46.97388 18.46083 37033 ft 496 kts 109°